{"data":{"norad_id":43623,"epoch":"2026-05-22T15:03:26.691264Z","epoch_age_seconds":279969,"freshness":"STALE","line1":"1 43623U 18072B   26142.62739226 -.00000053  00000+0  00000+0 0  9995","line2":"2 43623  56.6051  63.4972 0006624 351.7889   8.1977  1.86231107 52179","mean_motion":1.86231107,"eccentricity":0.0006624,"inclination_deg":56.6051,"raan_deg":63.4972,"arg_perigee_deg":351.7889,"mean_anomaly_deg":8.1977,"bstar":0,"rev_number":5217,"period_min":773.23279832085,"perigee_km":21509.555822567,"apogee_km":21546.525927016,"semimajor_km":27906.177874792,"source":"CELESTRAK","updated_at":"2026-05-25T13:38:24.219858Z"}}